When you browse on this site, cookies collect data to enhance your experience and personalize the content and advertising you see.
Visit our Privacy Policy to learn more. By continuing to use the site, you agree to this use of cookies and data.

Hourly Weather Tukums

Today, 7 July, Tuesday

Time Temperature Precipitation Wind Pressure Humidity
00:00 +12°C° 0 mm 5 mps 748 mmHg 82%
01:00 +12°C° 0 mm 5 mps 748 mmHg 83%
02:00 +10°C° 0 mm 5 mps 748 mmHg 85%
03:00 +12°C° 0 mm 5 mps 748 mmHg 84%
04:00 +12°C° 0 mm 4 mps 748 mmHg 84%
05:00 +12°C° 0 mm 4 mps 748 mmHg 83%
06:00 +13°C° 0 mm 5 mps 748 mmHg 78%
07:00 +15°C° 0 mm 5 mps 749 mmHg 73%
08:00 +16°C° 0 mm 6 mps 749 mmHg 68%
09:00 +16°C° 0 mm 6 mps 749 mmHg 67%
10:00 +16°C° 0 mm 6 mps 749 mmHg 66%
11:00 +17°C° 0 mm 6 mps 750 mmHg 65%
12:00 +17°C° 0.2 mm 5 mps 750 mmHg 65%
13:00 +17°C° 0.2 mm 5 mps 750 mmHg 66%
14:00 +17°C° 0.2 mm 5 mps 750 mmHg 66%
15:00 +19°C° 0.2 mm 4 mps 750 mmHg 64%
16:00 +19°C° 0.2 mm 4 mps 751 mmHg 62%
17:00 +19°C° 0.2 mm 4 mps 751 mmHg 60%
18:00 +18°C° 0 mm 3 mps 751 mmHg 64%
19:00 +17°C° 0 mm 3 mps 751 mmHg 68%
20:00 +16°C° 0 mm 2 mps 751 mmHg 73%
21:00 +13°C° 0 mm 3 mps 751 mmHg 78%
22:00 +12°C° 0 mm 3 mps 751 mmHg 84%
23:00 +10°C° 0 mm 3 mps 751 mmHg 89%

Tomorrow, 8 July, Wednesday

Time Temperature Precipitation Wind Pressure Humidity
00:00 +10°C° 0 mm 3 mps 751 mmHg 91%
01:00 +10°C° 0 mm 3 mps 751 mmHg 93%
02:00 +10°C° 0 mm 3 mps 751 mmHg 94%
03:00 +10°C° 0 mm 3 mps 751 mmHg 93%
04:00 +10°C° 0 mm 3 mps 750 mmHg 92%
05:00 +10°C° 0 mm 3 mps 750 mmHg 91%
06:00 +11°C° 0.1 mm 4 mps 750 mmHg 88%
07:00 +12°C° 0.1 mm 5 mps 750 mmHg 84%
08:00 +13°C° 0.1 mm 5 mps 750 mmHg 81%
09:00 +13°C° 0.4 mm 5 mps 750 mmHg 83%
10:00 +13°C° 0.4 mm 5 mps 750 mmHg 86%
11:00 +13°C° 0.4 mm 5 mps 750 mmHg 89%
12:00 +14°C° 0.4 mm 5 mps 750 mmHg 82%
13:00 +15°C° 0.4 mm 5 mps 750 mmHg 75%
14:00 +16°C° 0.4 mm 5 mps 750 mmHg 69%
15:00 +16°C° 0.1 mm 5 mps 750 mmHg 63%
16:00 +16°C° 0.1 mm 5 mps 750 mmHg 58%
17:00 +16°C° 0.1 mm 5 mps 750 mmHg 53%
18:00 +15°C° 0 mm 5 mps 750 mmHg 60%
19:00 +14°C° 0 mm 4 mps 750 mmHg 66%
20:00 +13°C° 0 mm 4 mps 750 mmHg 73%
21:00 +12°C° 0 mm 4 mps 750 mmHg 78%
22:00 +11°C° 0 mm 4 mps 750 mmHg 82%
23:00 +10°C° 0 mm 4 mps 750 mmHg 87%

Day after tomorrow, 9 July, Thursday

Time Temperature Precipitation Wind Pressure Humidity
00:00 +10°C° 0 mm 4 mps 751 mmHg 87%
01:00 +10°C° 0 mm 4 mps 751 mmHg 87%
02:00 +11°C° 0 mm 4 mps 751 mmHg 87%
03:00 +10°C° 0 mm 4 mps 751 mmHg 88%
04:00 +10°C° 0 mm 4 mps 751 mmHg 89%
05:00 +10°C° 0 mm 3 mps 751 mmHg 90%
06:00 +12°C° 0 mm 4 mps 751 mmHg 81%
07:00 +14°C° 0 mm 4 mps 752 mmHg 71%
08:00 +16°C° 0 mm 5 mps 752 mmHg 61%
09:00 +17°C° 0.1 mm 5 mps 753 mmHg 58%
10:00 +17°C° 0.1 mm 5 mps 753 mmHg 55%
11:00 +19°C° 0.1 mm 5 mps 754 mmHg 52%
12:00 +19°C° 0.2 mm 4 mps 754 mmHg 52%
13:00 +20°C° 0.2 mm 4 mps 754 mmHg 53%
14:00 +20°C° 0.2 mm 4 mps 754 mmHg 53%
15:00 +20°C° 0.2 mm 3 mps 754 mmHg 56%
16:00 +19°C° 0.2 mm 3 mps 755 mmHg 58%
17:00 +19°C° 0.2 mm 3 mps 755 mmHg 61%
18:00 +18°C° 0.1 mm 2 mps 755 mmHg 67%
19:00 +17°C° 0.1 mm 2 mps 755 mmHg 72%
20:00 +15°C° 0.1 mm 1 mps 755 mmHg 77%
21:00 +14°C° 0 mm 2 mps 755 mmHg 83%
22:00 +13°C° 0 mm 2 mps 755 mmHg 88%
23:00 +10°C° 0 mm 2 mps 756 mmHg 93%

10 July, Friday

Time Temperature Precipitation Wind Pressure Humidity
00:00 +10°C° 0 mm 2 mps 756 mmHg 94%
01:00 +9°C° 0 mm 2 mps 756 mmHg 95%
02:00 +9°C° 0 mm 2 mps 756 mmHg 95%
03:00 +9°C° 0 mm 2 mps 756 mmHg 95%
04:00 +8°C° 0 mm 2 mps 755 mmHg 96%
05:00 +8°C° 0 mm 2 mps 755 mmHg 96%
06:00 +10°C° 0 mm 3 mps 755 mmHg 91%
07:00 +12°C° 0 mm 3 mps 755 mmHg 85%
08:00 +14°C° 0 mm 3 mps 755 mmHg 80%
09:00 +16°C° 0.1 mm 3 mps 754 mmHg 76%
10:00 +18°C° 0.1 mm 4 mps 754 mmHg 72%
11:00 +19°C° 0.1 mm 4 mps 754 mmHg 68%
12:00 +17°C° 0.3 mm 5 mps 753 mmHg 76%
13:00 +16°C° 0.3 mm 5 mps 753 mmHg 83%
14:00 +15°C° 0.3 mm 5 mps 752 mmHg 91%
15:00 +15°C° 0.1 mm 5 mps 752 mmHg 91%
16:00 +15°C° 0.1 mm 5 mps 751 mmHg 91%
17:00 +16°C° 0.1 mm 5 mps 751 mmHg 91%
18:00 +16°C° 0.3 mm 5 mps 750 mmHg 91%
19:00 +16°C° 0.3 mm 5 mps 749 mmHg 92%
20:00 +17°C° 0.3 mm 5 mps 749 mmHg 92%
21:00 +17°C° 1.8 mm 6 mps 748 mmHg 94%
22:00 +17°C° 1.8 mm 6 mps 747 mmHg 95%
23:00 +17°C° 1.8 mm 6 mps 747 mmHg 97%

11 July, Saturday

Time Temperature Precipitation Wind Pressure Humidity
00:00 +16°C° 0.3 mm 6 mps 747 mmHg 95%
01:00 +15°C° 0.3 mm 6 mps 746 mmHg 93%
02:00 +15°C° 0.3 mm 6 mps 746 mmHg 91%
03:00 +14°C° 0 mm 6 mps 746 mmHg 90%
04:00 +12°C° 0 mm 7 mps 746 mmHg 88%
05:00 +11°C° 0 mm 7 mps 746 mmHg 87%
06:00 +12°C° 0 mm 8 mps 747 mmHg 80%
07:00 +13°C° 0 mm 9 mps 747 mmHg 73%
08:00 +16°C° 0 mm 10 mps 747 mmHg 67%
09:00 +14°C° 0.1 mm 10 mps 747 mmHg 68%
10:00 +14°C° 0.1 mm 10 mps 748 mmHg 70%
11:00 +15°C° 0.1 mm 9 mps 748 mmHg 71%
12:00 +16°C° 0.1 mm 10 mps 749 mmHg 70%
13:00 +16°C° 0.1 mm 10 mps 749 mmHg 68%
14:00 +17°C° 0.1 mm 10 mps 750 mmHg 66%
15:00 +17°C° 0.1 mm 10 mps 750 mmHg 67%
16:00 +17°C° 0.1 mm 9 mps 751 mmHg 68%
17:00 +16°C° 0.1 mm 9 mps 751 mmHg 69%
18:00 +16°C° 0.1 mm 8 mps 752 mmHg 71%
19:00 +15°C° 0.1 mm 6 mps 752 mmHg 74%
20:00 +14°C° 0.1 mm 5 mps 752 mmHg 77%
21:00 +14°C° 0 mm 5 mps 753 mmHg 80%
22:00 +13°C° 0 mm 5 mps 753 mmHg 84%
23:00 +12°C° 0 mm 5 mps 753 mmHg 87%

12 July, Sunday

Time Temperature Precipitation Wind Pressure Humidity
00:00 +12°C° 0 mm 5 mps 754 mmHg 89%
01:00 +11°C° 0 mm 4 mps 754 mmHg 92%
02:00 +11°C° 0 mm 4 mps 754 mmHg 94%
03:00 +11°C° 0 mm 4 mps 754 mmHg 94%
04:00 +11°C° 0 mm 3 mps 755 mmHg 94%
05:00 +11°C° 0 mm 3 mps 755 mmHg 94%
06:00 +12°C° 0 mm 3 mps 755 mmHg 85%
07:00 +14°C° 0 mm 3 mps 756 mmHg 77%
08:00 +17°C° 0 mm 2 mps 756 mmHg 68%
09:00 +18°C° 0 mm 2 mps 756 mmHg 63%
10:00 +19°C° 0 mm 2 mps 757 mmHg 59%
11:00 +20°C° 0 mm 2 mps 757 mmHg 55%
12:00 +19°C° 0.7 mm 2 mps 757 mmHg 62%
13:00 +19°C° 0.7 mm 3 mps 757 mmHg 69%
14:00 +19°C° 0.7 mm 3 mps 757 mmHg 76%
15:00 +19°C° 0.5 mm 3 mps 758 mmHg 75%
16:00 +19°C° 0.5 mm 2 mps 758 mmHg 74%
17:00 +19°C° 0.5 mm 2 mps 758 mmHg 73%
18:00 +18°C° 0.1 mm 2 mps 758 mmHg 76%
19:00 +17°C° 0.1 mm 2 mps 758 mmHg 80%
20:00 +16°C° 0.1 mm 2 mps 758 mmHg 83%
21:00 +15°C° 0 mm 2 mps 759 mmHg 86%
22:00 +14°C° 0 mm 2 mps 759 mmHg 89%
23:00 +13°C° 0 mm 2 mps 759 mmHg 92%
Show more